Location: Fort Wayne
(41.1310°N, 85.1290°W)
Time: 19:18:16
(UTC-04:00)

IDEFIX/ARIANE 42P - Visible Passes

Search period start: 25 April 2015 00:00
Search period end: 05 May 2015 00:00
Orbit: 785 x 804 km, 98.3° (Epoch: 25 April)

Date Brightness Start Highest point End Pass type
(mag) Time Alt. Az. Time Alt. Az. Time Alt. Az.
25 Apr 3.8 21:19:09 10° S 21:24:03 42° W 21:28:57 10° NNW visible
27 Apr 5.2 22:04:15 10° SW 22:07:37 17° W 22:10:46 10° NW visible
28 Apr 4.4 21:34:29 10° SSW 21:39:02 30° W 21:43:33 10° NW visible
29 Apr 3.3 21:05:33 10° S 21:10:38 56° W 21:15:44 10° NNW visible
30 Apr 5.4 22:20:49 10° WSW 22:22:45 12° W 22:24:19 10° WNW visible
01 May 4.9 21:50:03 10° SW 21:54:05 22° W 21:57:59 10° NW visible
02 May 4.0 21:20:44 10° SSW 21:25:34 40° W 21:30:26 10° NNW visible
04 May 5.2 22:05:58 10° SW 22:09:10 16° W 22:12:08 10° NW visible
